Starlink 5093

operational
NORAD ID: 56332 Int'l Des: 2023-058 Owner: SPXS Country: US Constellation: starlink
LEOCIRCULARRETROGRADESSO

Über Starlink 5093

Beschreibung wird geladen...

Live-Position

3D-Globus wird geladen...

Nächste Überflüge

Höhenverlauf

Altitude vs Time

uPlot chart will show altitude changes over time

Zweizeiliger Elementsatz

1 56332U 23058R 25350.94852285 -.00000020 00000-0 30006-5 0 9992
2 56332 97.6044 349.1627 0002257 81.9183 278.2297 15.01259431145715
Epoch: 16. Dez. 2025 • Age: 8 hours

Aktueller Status

Höhe 572.6 km
Geschwindigkeit 7.58 km/s
Subsatellitenpunkt 64.29°N, 141.54°E
Startdatum 27. Apr. 2023
Alter 2.6 years
Typ internet

Technische Details

Klassifizierung Payload
Masse 300.00 kg
Trockenmasse 260.00 kg
Gesamtmasse 300.00 kg
Länge 0.20 m
Durchmesser 2.80 m
Spannweite 9.00 m
Form Box + pan
Hersteller SPXS
Bus-Typ Starlink
Phasenstatus In Orbit
Besitzer/Staat SPXS/US

Große Konstellationen

Loading constellations...